User: anonymous   Login
Location: Nebula Knoll Observatory
(43.6666°N, 71.0000°W)
Time: 01:28:29
(UTC-04:00)
Language:

Cosmos 1782 - Orbit

View from above orbital plane
View from above orbital plane
View from above satellite
View from above satellite

Ground track
Ground track

The orbit data is extracted from the following two-line orbital elements,

1 16986U 86074A   18174.41517214 -.00000031 +00000-0 -40588-5 0  9997
2 16986 082.5085 120.0151 0012078 148.4271 211.7683 15.06883963705576
Epoch (UTC): 23 June 2018 09:57:50
Eccentricity: 0.0012078
inclination: 82.5085°
perigee height: 537 km
apogee height: 554 km
right ascension of ascending node: 120.0151°
argument of perigee: 148.4271°
revolutions per day: 15.06883963
mean anomaly at epoch: 211.7683°
orbit number at epoch: 70557

The dashed part of the orbit path shows where the satellite is in the earth's shadow,  

DLR